Hourly Data Report for December 26, 2020

L'ASSOMPTION
QUEBEC
Current Station Operator: ECCC - MSC

45°48'34.000" N
73°26'05.000" W
21.00 m
7014160
71524
WEW

Download Data

Hourly Data (December 2020)
Hourly Data Report for December 26, 2020
TIME
LST
Temp Definition
°C
Dew Point Definition
°C
Rel Hum Definition
%
Precip. Amount Definition
mm

Wind Dir Definition
10's deg

Wind Spd Definition
km/h
Visibility Definition
km
Stn Press Definition
kPa
Hmdx Definition


Wind Chill Definition


Weather Definition


00:00 0.8 -2.4 79 0.0 20 19   99.60     LegendNANA
01:00 -0.3 -5.2 69 0.0 22 19   99.64   -5 LegendNANA
02:00 -0.6 -5.5 69 0.0 22 20   99.72   -6 LegendNANA
03:00 -0.9 -5.2 72 0.0 22 16   99.76   -6 LegendNANA
04:00 -0.8 -4.4 76 0.0 21 15   99.75   -5 LegendNANA
05:00 -0.4 -4.5 74 0.0 20 23   99.77   -6 LegendNANA
06:00 -1.1 -5.6 71 0.0 20 26   99.82   -7 LegendNANA
07:00 -1.5 -6.7 68 0.0 19 19   99.89   -7 LegendNANA
08:00 -2.0 -7.7 65 0.0 19 20   99.93   -8 LegendNANA
09:00 -1.9 -7.6 65 0.0 20 23   99.97   -8 LegendNANA
10:00 -1.7 -6.7 69 0.0 20 25   100.00   -8 LegendNANA
11:00 -2.8 -6.8 74 0.0 22 19   99.97   -9 LegendNANA
12:00 -3.5 -8.9 66 0.3 24 24   99.99   -10 LegendNANA
13:00 -4.4 -9.7 66 0.0 23 23   100.00   -11 LegendNANA
14:00 -5.1 -11.9 59 0.0 23 25   100.08   -12 LegendNANA
15:00 -6.0 -11.7 64 0.0 23 24   100.17   -13 LegendNANA
16:00 -6.5 -11.4 68 0.0 22 22   100.27   -14 LegendNANA
17:00 -6.5 -12.4 62 0.0 25 17   100.36   -13 LegendNANA
18:00 -6.8 -13.3 60 0.0 27 15   100.49   -13 LegendNANA
19:00 -7.0 -13.2 61 0.0 27 14   100.60   -13 LegendNANA
20:00 -7.3 -13.5 61 0.0 27 14   100.69   -13 LegendNANA
21:00 -7.7 -13.4 64 0.0 27 10   100.78   -13 LegendNANA
22:00 -7.8 -13.4 64 0.0 25 13   100.86   -14 LegendNANA
23:00 -7.6 -13.0 65 0.0 26 10   100.94   -12 LegendNANA

Notes on Data Quality.

Legend

  • E = Estimated
  • M = Missing
  • NA = Not Available*
  • [empty] = Indicates an unobserved value
Date modified: